This demonstration page uses our WeatherBlox Daily Observations layout. Learn more.

Left ArrowRight Arrow

Hourly Observations for March 24, 2018

Temp ( °F °C ) Dew Point ( °F °C ) Humidity (%) Winds ( mph kmh ) Pressure ( in mb ) Visibility ( mi km ) Precip ( " mm )
12:17 am 00:17 Mostly Cloudy with Mist and Fog 43 6.1 43 6.1 100 100 NE 16 26 29.80 1009 6 10 0.00 0.00
12:35 am 00:35 Mostly Cloudy 43 6.1 42 5.6 97 97 NE 14 22 29.83 1010 7 11 0.00 0.00
12:53 am 00:53 Cloudy 43 6.1 42 5.6 97 97 NNE 13 20 29.80 1009 7 11 0.00 0.00
1:36 am 01:36 Cloudy 43 6 43 6 100 100 N 12 19 29.83 1010 7 11 0.00 0.00
1:53 am 01:53 Cloudy 42 5.6 42 5.6 100 100 N 10 17 29.80 1009 8 13 0.00 0.00
2:53 am 02:53 Cloudy with Mist and Fog 42 5.6 41 5 96 96 N 14 22 29.82 1010 4 6 0.00 0.00
3:02 am 03:02 Cloudy with Mist and Fog 41 5 41 5 100 100 NNE 13 20 29.85 1011 4 6 0.00 0.00
3:53 am 03:53 Cloudy with Mist and Fog 41 5 41 5 100 100 NNW 13 20 29.84 1011 4 6 0.00 0.00
4:53 am 04:53 Cloudy with Mist and Fog 41 5 41 5 100 100 N 14 22 29.85 1011 5 8 0.00 0.00
5:53 am 05:53 Cloudy with Mist and Fog 41 5 41 5 100 100 N 15 24 29.88 1012 5 8 0.00 0.00
6:36 am 06:36 Cloudy with Mist and Fog 41 5 39 4 93 93 NNW 12 19 29.97 1015 5 8 0.00 0.00
6:53 am 06:53 Cloudy with Mist and Fog 41 5 40 4.4 96 96 NNW 12 19 29.92 1013 3 5 0.00 0.00
7:04 am 07:04 Cloudy with Mist and Fog 41 5 41 5 100 100 NNW 13 20 29.97 1015 3 4 0.00 0.00
7:25 am 07:25 Cloudy with Mist and Fog 41 5 41 5 100 100 NNW 10 17 30.00 1016 3 5 0.00 0.00
7:43 am 07:43 Cloudy with Mist and Fog 41 5 39 4 93 93 N 13 20 30.00 1016 3 4 0.00 0.00
7:53 am 07:53 Cloudy with Mist and Fog 40 4.4 40 4.4 100 100 N 13 20 29.94 1014 2 3 0.00 0.00
8:35 am 08:35 Cloudy with Mist and Fog 41 5 41 5 100 100 N 13 20 30.00 1016 3 5 0.00 0.00
8:53 am 08:53 Cloudy with Mist and Fog 41 5 41 5 100 100 N 15 24 29.96 1015 4 6 0.00 0.00
9:53 am 09:53 Cloudy 42 5.6 40 4.4 92 92 N 22 35 29.99 1016 10 16 0.00 0.00
10:03 am 10:03 Cloudy 42 5.6 40 4.4 92 92 N 17 28 30.03 1017 10 16 0.00 0.00
10:53 am 10:53 Cloudy 42 5.6 39 3.9 89 89 N 18 30 30.01 1016 10 16 0.00 0.00
11:34 am 11:34 Cloudy 43 6 37 3 81 81 N 17 28 30.06 1018 10 16 0.00 0.00
11:53 am 11:53 Cloudy 41 5 38 3.3 89 89 N 18 30 30.04 1017 10 16 0.00 0.00
12:53 pm 12:53 Cloudy 39 3.9 34 1.1 82 82 N 18 30 30.07 1018 10 16 0.00 0.00
1:09 pm 13:09 Cloudy 39 3.9 34 1.1 82 82 N 16 26 30.09 1019 10 16 0.00 0.00
1:53 pm 13:53 Cloudy 39 3.9 33 0.6 79 79 N 16 26 30.08 1019 10 16 0.00 0.00
2:53 pm 14:53 Cloudy 38 3.3 33 0.6 83 83 NNE 14 22 30.08 1019 10 16 0.00 0.00
3:53 pm 15:53 Cloudy 38 3.3 32 0 79 79 NNE 15 24 30.07 1018 10 16 0.00 0.00
4:53 pm 16:53 Cloudy 38 3.3 32 0 79 79 NE 10 17 30.07 1018 10 16 0.00 0.00
5:53 pm 17:53 Cloudy 36 2.2 30 -1.1 79 79 NNE 15 24 30.07 1018 10 16 0.00 0.00
6:27 pm 18:27 Cloudy 36 2 30 -1 81 81 NE 15 24 30.12 1020 10 16 0.00 0.00
6:40 pm 18:40 Cloudy 36 2 28 -2 75 75 ENE 14 22 30.12 1020 10 16 0.00 0.00
6:53 pm 18:53 Cloudy 34 1.1 29 -1.7 82 82 ENE 14 22 30.08 1019 10 16 0.00 0.00
7:44 pm 19:44 Cloudy 34 1 28 -2 81 81 NE 13 20 30.15 1021 10 16 0.00 0.00
7:53 pm 19:53 Cloudy 32 0 28 -2.2 85 85 ENE 13 20 30.10 1019 10 16 0.00 0.00
8:53 pm 20:53 Cloudy 32 0 27 -2.8 82 82 E 13 20 30.09 1019 10 16 0.00 0.00
9:53 pm 21:53 Cloudy 31 -0.6 28 -2.2 89 89 ESE 8 13 30.14 1021 10 16 0.00 0.00
10:53 pm 22:53 Cloudy 32 0 29 -1.7 88 88 SE 8 13 30.15 1021 10 16 0.00 0.00
11:53 pm 23:53 Cloudy 32 0 29 -1.7 88 88 E 9 15 30.12 1020 10 16 0.00 0.00

Powered by AerisWeather